Погода Мыс Ванкерем

Погода Мыс Ванкерем : погода сейчас, прогноз погоды и архив. Всё, что Вы хотите узнать о погоде Мыс Ванкерем!

Поиск расширенной информации на нашем сайте:

Другие новости

Новости СМИ2

Главная страница сайта

Новости сайта

03.07.2017

Напоминаем, что на нашем специализированном сайте Метеоцентр.Азия вы можете получить высокодетализированные автоматические прогнозы погоды по пунктам России, СНГ и мира в авиационном формате (включающие направление и скорость ветра, видимость, явления погоды, количество и форму облачности, нижнюю и верхнюю границу облачности).


Погода Мыс Ванкерем - сегодня

Время (UTC), дата Ветер
(°,м/с) 
Видим.   Явления Облачность Т
(°С)
Тd
(°С)
f(%) Тe
(°С)
Pmin
(гПа)
dP
(гПа)
Po
(мм)
O2
(г/м3)
Тmin Tmax R s Состояние
почвы
03 20.05.18 320 (СЗ) 5{07}  10 км    10/10 600 м 
[Sc]
-3.7 -5.5 87 -7  1017.8  -0.5  763  312           
09 20.05.18 310 (СЗ) 5{08}  20000 м    9/8 600 м средняя, верхняя 
[Sc|Ac trans|Ci fib]
-5.6 -7.8 84 -10  1017.2  0.2  762  314           
12 20.05.18 320 (СЗ) 5{08}  20000 м    8/0 средняя, верхняя 
[Ac trans|Ci fib]
-6.2 -8.5 84 -10  1017.1  -0.1  762  315           
15 20.05.18 310 (СЗ) 4{07}  20000 м    6/0 средняя 
[Ac trans]
-7.5 -10.1 82 -11  1016.9  -0.2  762  317           
18 20.05.18 320 (СЗ) 5{08}  20000 м    8/6 600 м средняя, верхняя 
[Sc|Ac trans|Ci fib]
-7 -9.1 85 -11  1016.6  -0.3  762  316  -8.4      49  неравномерный
сухой снег
100% 
21 20.05.18 330 (СЗ) 6{08}  10 км    10/10 600 м 
[Sc]
-6.4 -8.3 86 -11  1016.2  -1  762  315           
00 21.05.18 310 (СЗ) 7{09}  10 км    10/10 200 м 
[Sc]
-5.2 -7.3 85 -10  1015.7  -0.5  761  314           
03 21.05.18 320 (СЗ) 7{09}  10 км    10/10 200 м 
[Sc]
-5.8 -7.6 87 -11  1014.9  -0.8  761  314           
09 21.05.18 340 (С) 5{08}  10 км    10/10 600 м 
[Sc]
-5.9 -8.5 82 -10  1015.3  0.2  761  314           
12 21.05.18 350 (С) 5{08}  10 км    9/9 600 м 
[Sc]
-6.4 -8.7 84 -10  1015.3  761  315           
15 21.05.18 360 (С) 6{08}  10 км    9/9 600 м 
[Sc]
-5.6 -8.2 82 -10  1015.5  0.2  761  314           
18 21.05.18 350 (С) 4{07}  10 км    8/6 600 м средняя 
[Sc|Ac trans]
-5 -8.2 78 -8  1015.6  0.1  761  313  -7.3      49  неравномерный
сухой снег
100% 
21 21.05.18 350 (С) 4{06}  10 км    10/8 600 м средняя 
[Sc|Ac und]
-4.8 -7.2 83 -8  1015.1  -0.5  761  313           
00 22.05.18 340 (С) 3{05}  10 км    10/10 600 м 
[Sc]
-5.2 -7.3 85 -8  1014.8  -0.3  761  313           
03 22.05.18 340 (С) 4{06}  10 км    9/9 600 м 
[Sc]
-4.2 -6.8 82 -7  1013.7  -1.1  760  312           
09 22.05.18 340 (С) 5{07}  10 км    10/10 600 м 
[Sc]
-5.8 -8.4 82 -10  1013.1  -0.4  759  314           
12 22.05.18 340 (С) 5{08}  10 км    10/10 600 м 
[Sc]
-6.7 -9.1 83 -11  1012.4  -0.7  759  314           
15 22.05.18 330 (СЗ) 6{08}  10 км    10/10 600 м 
[Sc]
-7.9 -10.6 81 -13  1011.7  -0.7  758  316           
18 22.05.18 340 (С) 6{08}  10 км    10/10 600 м 
[Sc]
-7.1 -9.6 82 -12  1010.7  -1  758  314  -8.3      49  неравномерный
сухой снег
100% 
21 22.05.18 340 (С) 8{11}  10 км    10/10 200 м 
[Sc]
-6 -8.3 84 -12  1010.2  -0.5  757  313           
00 23.05.18 320 (СЗ) 7{10}  10 км    10/10 200 м 
[Sc]
-4.9 -7 85 -10  1009.6  -0.6  757  311           
03 23.05.18 330 (СЗ) 6{10}  10 км    10/10 200 м 
[Sc]
-4 -6.6 82 -8  1009.3  -0.3  757  310           
09 23.05.18 340 (С) 6{09}  10 км    10/10 200 м 
[Sc]
-5.5 -8.5 79 -10  1008.4  -0.3  756  312           
12 23.05.18 340 (С) 7{10}  10 км    10/10 600 м 
[Sc]
-6.4 -9.6 78 -12  1008.1  -0.3  756  313           
15 23.05.18 330 (СЗ) 8{10}  10 км    10/10 600 м 
[Sc]
-7.8 -10.5 81 -14  1007.9  -0.2  755  314           
Время (UTC), дата Ветер
(°,м/с) 
Видим.   Явления Облачность Т
(°С)
Тd
(°С)
f(%) Тe
(°С)
Pmin
(гПа)
dP
(гПа)
Po
(мм)
O2
(г/м3)
Тmin Tmax R s Состояние
почвы

Для получения пояснительной информации подведите курсор к названию столбца.

ПОГОДА Мыс Ванкерем - архив

Всё, что Вы хотите узнать о погоде Мыс Ванкерем - удобно и подробно!

Выберите нужную дату (начиная с 1 января 2015* года) и нажмите кнопку "Найти".
Будут отображены архивные сводки погоды по пункту Мыс Ванкерем, начиная с указанной даты.


Отображать данные в формате CSV (для использования в таблицах Excel)


Внимание! Наш архив погоды предназначен исключительно для личного некоммерческого использования в познавательных целях. Если Вам необходимы официальные справки о состоянии погоды (для производственных, юридических, коммерческих и т.п. целей), обращайтесь в органы Росгидромета.

*Примечание: данная дата относится к архиву по метеостанциям СССР (Россия, СНГ, Балтия).
Архив по метеостанциям Зарубежной Европы и Азии (кроме Китая) хранится 10 дней, по другим регионам земного шара (Китай, Африка, Америка, Австралия, Океания) - 1 день.

Мыс Ванкерем - район местоположения метеостанции


Название, широта, долгота, высота метеостанции:
Мыс Ванкерем 67.83°ш. -175.8°д. 5 м над ур. моря [Российская Федерация]

Дополнительная информация

В oтличие oт бoльшинства пoгoдных сайтoв мы публикуем пoдрoбную метеoинфoрмацию в детальнoм прoфессиoнальнoм фoрмате.

Характеристики температуры и влажнoсти вoздуха измеряются на высoте 2 м в тени вдали oт зданий и деревьев.
Скoрoсть ветра измеряется на высoте 10 м (на урoвне рoста челoвека скoрoсть ветра ниже в 1.5-2 раза). Если метеoстанция нахoдится в гoрoде или в лесу, тo скoрoсть ветра занижена на 2-4 м/с пo сравнению с oткрытым местoм. Скoрoсть ветра над акватoриями крупных рек и oзёр, а также на вершинах хoлмoв на 2-5 м/с выше, чем в oбычных услoвиях.
Атмoсфернoе давление в разных тoчках местнoсти мoжет значительнo oтличаться oт давления на метеoстанции, в зависимoсти oт услoвий рельефа (при пoдъёме на 10 м давление пoнижается примернo на 1 мм рт.ст.).